Probability
0 0 0 0 0 0 0 0 0 0 0 0 0 0 0 0 0 0 0 0 0 0 0 0 0 0 0 0 0 0 0 0 0 0 0 0 0 0
0 0 0 0 0 0 0 0 0 0 0 0 0 0 0 0 0 0 0 0 0 0 0 0 0 0 0 0 0 0 0 0 0 0 0 0 0 0
0 0 0 0 0 0 0 0 0 0 0 0 0 0 0 0 0 0 0 0 0 0 0 0 0 0 0 0 0 0 0 0 0 0 0 0 0 0
0 0 0 0 0 0 0 0 0 0 0 0 0 0 0 0 0 0 0 0 0 0 0 0 0 0 0 0 0 0 0 0 0 0 0 0 0 0
0 0 0 0 0 0 0 0 0 0 0 0 0 0 0 0 0 0 0 0 0 0 0 0 0 0 0 0 0 0 0 0 0 0 0 0 0 0
0 0 0 0 0 0 0 0 0 0 0 0 0 0 0 0 0 0 0 0 0 0 0 0 0 0 0 0 0 0 0 0 0 0 0 0 0 0
0 0 0 0 0 0 0 0 0 0 0 0 0 0 0 0 0 0 0 0 0 0 0 0 0 0 0 0 0 0 0 0 0 0 0 0 0 0
0 0 0 0 0 0 0 0 0 0 0 0 0 0 0 0 0 0 0 0 0 0 0 0 0 0 0 0 0 0 0 0 0 0 0 0 0 0
0 0 0 0 0 0 0 0 0 0 0 0 0 0 0 0 0 0 0 0 0 0 0 0 0 0 0 0 0 0 0 0 0 0 0 0 0 0
0 0 0 0 0 0 0 0 0 0 0 0 0 0 0 0 0 0 0 0 0 0 0 0 0 0 0 0 0 0 0 0 0 0 0 0 0 0
0 0 0 0 0 0 0 0 0 0 0 0 0 0 0 0 0 0 0 0 0 0 0 0 0 0 0 0 0 0 0 0 0 0 0 0 0 0
0 0 0 0 0 0 0 0 0 0 0 0 0 0 0 0 0 0 0 0 0 0 0 0 0 0 0 0 0 0 0 0 0 0 0 0 0 0
0 0 0 0 0 0 0 0 0 0 0 0 0 0 0 0 0 0 0 0 0 0 0 0 0 0 0 0 0 0 0 0 0 0 0 0 0 0
0 0 0 0 0 0 0 0 0 0 0 0 0 0 0 0 0 0 0 0 0 0 0 0 0 0 0 0 0 0 0 0 0 0 0 0 0 0
0 0 0 0 0 0 0 0 0 0 0 0 0 0 0 0 0 0 0 0 0 0 0 0 0 0 0 0 0 0 0 0 0 0 0 0 0 0
0 0 0 0 0 0 0 0 0 0 0 0 0 0 0 0 0 0 0 0 0 0 0 0 0 0 0 0 0 0 0 0 0 0 0 0 0 0
0 0 0 0 0 0 0 0 0 0 0 0 0 0 0 0 0 0 0 0 0 0 0 0 0 0 0 0 0 0 0 0 0 0 0 0 0 0
0 0 0 0 0 0 0 0 0 0 0 0 0 0 0 0 0 0 0 0 0 0 0 0 0 0 0 0 0 0 0 0 0 0 0 0 0 0
0 0 0 0 0 0 0 0 0 0 0 0 0 0 0 0 0 0 0 0 0 0 0 0 0 0 0 0 0 0 0 0 0 0 0 0 0 0
0 0 0 0 0 0 0 0 0 0 0 0 0 0 0 0 0 0 0 0 0 0 0 0 0 0 0 0 0 0 0 0 0 0 0 0 0 0
0 0 0 0 0 0 0 0 0 0 0 0 0 0 0 0 0 0 0 0 0 0 0 0 0 0 0 0 0 0 0 0 0 0 0 0 0 0
0 0 0 0 0 0 0 0 0 0 0 0 0 0 0 0 0 0 0 0 0 0 0 0 0 0 0 0 0 0 0 0 0 0 0 0 0 0
0 0 0 0 0 0 0 0 0 0 0 0 0 0 0 0 0 0 0 0 0 0 0 0 0 0 0 0 0 0 0 0 0 0 0 0 0 0
Height
5711 5710 5710 5709 5708 5706 5705 5703 5701 5700 5702 5702 5701 5701 5700 5699 5699 5698 5698 5698 5698 5698 5697 5696 5696 5695 5695 5694 5694 5693 5692 5691 5690 5689 5687 5686 5684 5682
5699 5698 5697 5696 5695 5693 5691 5689 5687 5686 5686 5688 5687 5687 5686 5686 5685 5686 5686 5686 5686 5685 5685 5685 5685 5684 5684 5683 5683 5683 5682 5681 5680 5679 5678 5677 5675 5674
5687 5685 5684 5682 5680 5679 5677 5675 5673 5671 5671 5672 5672 5672 5671 5672 5672 5672 5672 5672 5673 5673 5673 5673 5673 5673 5672 5673 5673 5672 5672 5671 5671 5670 5669 5668 5666 5665
5673 5671 5670 5667 5665 5663 5661 5660 5658 5657 5655 5656 5657 5657 5657 5657 5657 5658 5658 5659 5659 5660 5661 5661 5661 5661 5661 5661 5662 5662 5661 5661 5661 5660 5659 5658 5657 5656
5658 5656 5655 5652 5650 5648 5646 5644 5642 5641 5640 5639 5640 5641 5641 5642 5643 5643 5644 5645 5645 5646 5647 5648 5648 5649 5649 5650 5650 5651 5651 5650 5650 5650 5650 5649 5648 5648
5643 5641 5638 5635 5633 5631 5629 5627 5625 5624 5623 5622 5623 5624 5625 5626 5627 5628 5629 5630 5632 5633 5634 5635 5636 5637 5638 5638 5639 5639 5640 5640 5640 5640 5640 5640 5639 5639
5628 5624 5621 5618 5615 5612 5610 5609 5606 5605 5605 5605 5605 5607 5609 5610 5612 5613 5614 5616 5617 5619 5620 5622 5623 5624 5625 5626 5627 5628 5629 5629 5630 5630 5630 5630 5630 5630
5612 5609 5605 5601 5597 5594 5591 5589 5588 5587 5587 5587 5588 5590 5592 5594 5596 5598 5599 5601 5603 5606 5607 5609 5610 5612 5613 5615 5615 5617 5618 5618 5619 5620 5620 5621 5621 5622
5596 5592 5588 5584 5580 5576 5573 5571 5570 5568 5568 5569 5570 5573 5576 5579 5581 5583 5585 5587 5590 5592 5594 5596 5598 5600 5601 5603 5604 5605 5607 5608 5609 5610 5611 5611 5612 5613
5580 5576 5572 5568 5563 5558 5556 5554 5552 5552 5552 5552 5554 5556 5559 5562 5565 5568 5570 5573 5576 5578 5581 5584 5585 5588 5590 5592 5593 5595 5596 5598 5599 5600 5601 5602 5603 5605
5565 5560 5555 5550 5546 5541 5538 5537 5536 5536 5535 5536 5537 5540 5543 5546 5549 5552 5555 5559 5562 5565 5568 5571 5574 5576 5578 5580 5582 5584 5586 5587 5589 5591 5592 5593 5594 5596
5550 5544 5538 5533 5528 5524 5521 5520 5519 5520 5520 5520 5522 5524 5527 5531 5534 5538 5541 5545 5548 5552 5555 5559 5562 5564 5567 5569 5571 5573 5575 5577 5579 5581 5583 5584 5586 5587
5533 5527 5521 5516 5512 5508 5506 5504 5503 5503 5504 5505 5507 5510 5513 5517 5521 5524 5528 5532 5536 5539 5543 5546 5549 5552 5556 5558 5560 5562 5565 5567 5569 5571 5573 5575 5577 5579
5516 5510 5504 5499 5496 5493 5491 5489 5488 5488 5489 5490 5492 5495 5499 5503 5507 5511 5514 5518 5523 5527 5530 5534 5537 5541 5544 5547 5550 5552 5554 5557 5559 5562 5564 5566 5568 5570
5498 5493 5488 5484 5480 5478 5476 5475 5474 5475 5475 5476 5479 5482 5485 5489 5493 5498 5502 5506 5510 5514 5517 5521 5525 5529 5533 5536 5539 5542 5545 5547 5549 5552 5554 5556 5559 5561
5482 5477 5473 5469 5466 5464 5462 5461 5461 5461 5462 5464 5466 5469 5472 5476 5480 5485 5490 5494 5498 5502 5506 5510 5514 5518 5522 5525 5529 5532 5534 5537 5540 5542 5545 5547 5549 5552
5467 5462 5458 5454 5452 5450 5449 5448 5447 5448 5449 5451 5454 5457 5460 5464 5469 5473 5478 5482 5487 5491 5495 5499 5502 5507 5511 5514 5518 5521 5524 5527 5530 5533 5535 5538 5540 5543
5452 5448 5444 5440 5437 5436 5435 5434 5434 5434 5436 5438 5441 5445 5448 5452 5457 5461 5466 5471 5475 5479 5484 5488 5492 5496 5500 5504 5508 5511 5514 5517 5520 5523 5525 5528 5531 5534
5438 5434 5430 5427 5424 5422 5421 5421 5421 5422 5423 5425 5429 5432 5436 5440 5445 5450 5455 5459 5464 5469 5473 5477 5482 5486 5490 5494 5497 5501 5504 5507 5510 5513 5516 5519 5522 5524
5424 5420 5417 5414 5412 5410 5409 5409 5409 5410 5411 5413 5417 5421 5424 5429 5433 5438 5443 5448 5452 5457 5462 5467 5471 5475 5479 5483 5487 5491 5494 5497 5500 5503 5506 5509 5512 5515
5412 5408 5405 5402 5400 5398 5397 5397 5397 5398 5399 5402 5405 5409 5413 5418 5422 5427 5432 5436 5441 5447 5451 5456 5460 5464 5469 5473 5477 5481 5484 5487 5490 5494 5497 5500 5503 5505
5401 5398 5394 5391 5389 5387 5386 5385 5386 5387 5389 5391 5395 5398 5403 5407 5411 5416 5421 5425 5431 5436 5440 5445 5450 5454 5459 5463 5467 5470 5474 5477 5481 5484 5487 5491 5493 5496
5391 5387 5384 5381 5378 5377 5376 5375 5376 5377 5379 5382 5385 5388 5392 5396 5401 5405 5410 5415 5420 5425 5430 5435 5440 5444 5448 5452 5456 5460 5464 5467 5471 5474 5477 5480 5483 5486
Wind_Speed
47 48 50 51 54 55 56 56 56 56 55 55 55 54 53 53 52 51 49 48 47 47 45 45 46 45 44 44 43 42 41 39 37 36 36 35 34 33
49 50 51 52 53 54 55 56 56 57 57 55 55 55 55 54 52 51 50 48 47 47 46 46 45 45 44 43 42 41 40 38 36 35 35 34 33 31
52 52 53 54 55 56 57 57 57 59 59 57 57 56 54 53 52 51 50 49 48 47 46 46 46 45 43 43 42 40 39 37 36 35 34 33 32 31
51 53 55 56 57 58 57 57 57 58 59 58 57 56 55 53 52 52 53 52 50 49 47 46 46 45 44 43 42 41 39 37 36 35 34 32 31 30
53 55 56 57 59 60 59 59 60 60 60 60 58 56 54 54 53 53 53 52 51 51 49 47 46 45 45 44 43 41 39 37 35 34 32 31 31 29
55 56 58 59 60 61 62 62 63 63 62 59 57 55 54 53 53 53 53 53 52 51 51 49 48 46 45 43 42 40 38 36 35 33 32 31 30 28
53 56 58 60 61 62 62 63 63 62 60 58 57 56 55 55 54 54 54 53 52 51 50 49 47 46 44 42 40 39 37 36 34 32 30 29 28 27
53 54 56 58 59 60 62 62 62 59 58 57 57 57 56 55 54 54 53 52 51 49 48 47 45 44 42 40 39 37 36 35 33 31 29 29 28 26
53 53 55 56 58 58 58 58 57 56 55 55 55 56 55 53 53 53 53 51 49 48 46 45 43 42 41 39 37 35 34 33 32 30 29 29 27 26
51 53 54 55 55 55 54 54 54 53 52 53 53 53 53 53 53 52 51 50 48 46 44 43 42 41 39 37 35 34 34 33 32 31 30 28 27 26
51 53 54 53 53 52 52 52 51 51 51 51 52 51 50 50 51 50 48 47 45 43 41 41 40 39 38 36 35 34 33 32 32 31 29 28 27 26
51 53 54 53 51 50 50 50 49 49 49 50 50 50 50 48 47 46 46 46 44 42 41 41 39 38 37 36 35 34 33 32 31 30 29 28 27 27
53 54 54 52 51 50 49 48 47 47 47 48 49 49 49 48 46 45 44 43 42 41 41 41 40 38 37 35 34 33 33 32 31 30 29 28 27 27
52 52 51 50 49 47 46 45 45 45 45 45 46 46 45 45 44 43 43 41 40 39 40 40 38 37 36 34 33 32 32 31 31 30 29 28 27 27
50 48 48 48 47 45 45 44 44 43 43 43 43 42 42 42 42 42 41 39 39 38 37 37 37 36 35 34 33 32 32 31 31 30 29 29 28 27
49 48 47 46 45 44 44 43 43 44 43 42 41 41 41 40 40 40 38 38 37 36 36 36 36 35 34 34 33 33 32 31 31 30 30 29 29 28
48 47 46 45 44 43 43 42 41 41 41 41 40 38 38 40 40 39 38 37 36 35 35 34 34 35 35 35 34 33 32 32 31 30 30 29 29 29
47 46 44 43 42 41 40 40 39 39 38 38 38 37 37 36 37 37 36 35 35 35 35 35 35 35 35 34 33 33 32 32 31 31 31 30 29 29
45 44 42 41 40 39 39 38 38 37 36 36 36 36 35 34 34 35 36 35 35 36 36 36 35 35 34 33 33 33 32 32 32 31 31 30 29 29
43 42 40 39 38 37 37 36 36 35 34 34 35 35 35 34 34 35 36 36 36 36 36 36 35 35 34 33 33 32 32 32 31 31 30 30 30 30
41 40 38 37 36 35 35 34 34 33 33 33 34 34 34 33 34 35 36 37 37 36 36 35 35 35 34 33 33 32 32 32 31 31 30 30 30 30
38 37 36 35 34 33 33 32 32 31 31 32 32 32 33 33 33 34 35 35 36 36 35 35 34 34 33 33 33 33 32 32 32 32 31 31 30 30
36 35 35 34 33 31 30 30 30 29 29 30 31 31 32 32 33 33 34 34 34 34 34 33 32 33 33 33 33 33 32 32 32 32 32 32 32 31
Wind_Direction
270 272 274 274 274 274 275 275 275 275 275 275 275 275 276 277 277 278 276 275 277 279 279 280 281 282 283 284 286 287 289 291 293 295 297 299 300 301
271 272 274 276 277 277 276 275 275 275 275 275 274 274 274 275 276 275 274 276 277 277 277 279 280 282 283 284 285 287 288 290 292 293 295 296 298 298
273 274 276 277 278 278 277 275 274 275 275 275 274 274 274 275 276 275 274 275 275 276 278 279 280 281 281 282 283 284 285 287 289 290 291 292 294 294
275 276 277 277 277 277 277 275 274 274 275 275 274 273 273 273 274 274 273 273 273 274 276 277 279 280 280 280 281 282 282 283 285 287 287 288 289 289
275 276 277 278 278 277 276 276 275 274 274 274 273 272 271 271 271 271 272 272 271 273 275 276 277 278 278 278 278 279 278 280 282 283 283 285 286 286
278 278 278 279 279 278 277 276 275 275 274 273 272 270 269 269 269 270 270 271 271 272 274 274 276 276 277 277 276 275 276 278 279 279 280 282 282 281
280 280 280 279 279 278 278 276 275 275 273 271 270 268 267 267 268 268 269 270 270 273 273 273 274 274 275 275 273 273 274 276 276 276 277 278 278 277
280 280 280 280 279 279 278 277 276 274 272 270 268 267 267 268 268 269 269 270 271 271 271 271 273 273 273 272 271 271 271 271 272 272 273 275 275 273
283 282 282 282 282 281 279 277 275 274 271 269 267 266 266 266 267 269 268 268 270 270 269 269 270 271 269 267 267 267 268 268 268 269 270 271 270 268
286 286 286 285 283 281 278 276 274 272 270 268 267 266 265 264 266 267 266 266 267 267 267 267 266 266 264 263 264 265 265 265 266 267 268 267 265 263
287 288 288 287 284 281 278 276 273 271 268 266 265 264 263 263 263 263 263 263 264 264 262 262 261 261 261 261 262 262 263 263 263 264 264 263 262 261
289 289 289 287 284 281 279 276 273 271 267 265 264 264 262 261 262 262 262 260 260 260 260 258 258 259 260 260 260 261 260 260 260 262 262 261 259 258
293 291 290 287 284 281 278 276 273 270 268 265 264 263 261 260 260 260 258 257 257 257 257 256 257 257 257 258 258 258 258 257 258 258 257 257 256 255
294 292 290 287 283 280 278 275 273 270 267 265 263 261 260 258 257 256 256 255 256 255 256 255 254 254 253 254 254 255 256 256 257 255 255 254 254 253
293 292 290 287 283 280 277 275 272 270 267 265 262 260 260 258 256 255 254 253 253 253 252 251 250 250 250 251 252 253 254 255 255 253 252 251 251 251
294 292 289 287 283 280 278 275 271 269 268 266 262 261 259 256 254 252 251 251 251 250 250 250 248 248 248 249 250 251 253 254 253 251 250 249 249 249
294 292 290 287 283 280 277 275 272 271 269 264 261 259 256 254 252 250 249 250 250 248 247 247 247 246 246 247 248 250 252 252 251 250 249 248 248 248
296 294 291 288 285 282 278 274 272 271 269 263 258 256 254 251 249 249 249 248 248 247 246 245 246 245 245 246 248 249 251 250 249 248 248 248 248 248
297 295 292 289 285 282 279 275 272 270 267 261 256 254 251 249 248 247 247 247 246 245 244 244 244 244 245 246 246 247 248 247 246 247 247 247 247 247
297 294 292 290 287 284 281 276 273 269 265 260 254 251 248 248 246 245 245 246 245 244 244 243 243 243 244 244 244 245 246 245 245 245 245 246 246 247
297 294 292 291 289 285 281 277 272 267 262 257 252 250 250 249 247 246 245 245 243 243 242 242 242 242 242 242 243 244 245 244 243 243 245 246 246 247
297 295 293 291 289 285 281 277 272 266 260 253 251 249 247 246 245 245 244 242 240 239 240 241 241 241 240 240 242 244 244 243 243 243 244 246 247 247
300 297 295 293 290 287 282 277 271 263 257 251 248 246 245 243 243 242 240 238 238 239 240 239 240 239 239 239 241 242 243 244 244 243 244 246 247 247